Weather History for KPLN - December, 2012

Change the Weather History Date:

Tuesday, December 4, 2012

  Actual Average Record
Temperature  
Mean Temperature 45 °F -  
Max Temperature 62 °F - - ()
Min Temperature 28 °F - - ()
Degree Days  
Heating Degree Days 20    
Moisture  
Dew Point 34 °F    
Average Humidity 68    
Maximum Humidity 88    
Minimum Humidity 56    
Precipitation  
Precipitation 0.01 in - - ()
Sea Level Pressure  
Sea Level Pressure 29.89 in    
Wind  
Wind Speed 16 mph (West)    
Max Wind Speed 23 mph    
Max Gust Speed 43 mph    
Visibility 10 miles    
Events Rain    
T = Trace of Precipitation, MM = Missing Value Source: NWS Daily Summary

Daily Weather History Graph

Daily Weather History Graph

Search for Another Location

Airport or City:

Trip Planner

Search our weather history database for the weather conditions in past years. The results will help you decide how hot, cold, wet, or windy it might be!

Date:

Astronomy

Dec. 04, 2012 Rise Set
Actual Time 8:03 AM EST 4:56 PM EST
Civil Twilight 7:29 AM EST 5:29 PM EST
Nautical Twilight 6:52 AM EST 6:07 PM EST
Astronomical Twilight 6:16 AM EST 6:42 PM EST
Moon 10:54 PM EST (12/4) 11:46 AM EST (12/4)
Length of Visible Light 10h 00m
Length of Day
8h 53m
Waning Gibbous, 69% of the Moon is Illuminated
Dec 4
Waning Gibbous
Dec 6
Last Quarter
Dec 13
New
Dec 20
First Quarter
Dec 28
Full

Hourly Weather History & Observations

Time (EST) Temp. Windchill Dew Point Humidity Pressure Visibility Wind Dir Wind Speed Gust Speed Precip Events Conditions
12:13 AM 62.6 °F - 55.4 °F 77% 29.65 in 8.0 mi WSW 23.0 mph 42.6 mph 0.01 in Rain Light Rain
12:54 AM 57.9 °F - 53.1 °F 84% 29.68 in 9.0 mi West 18.4 mph 27.6 mph 0.01 in Rain Light Rain
1:08 AM 57.2 °F - 51.8 °F 82% 29.68 in 9.0 mi WSW 13.8 mph 26.5 mph 0.00 in Rain Light Rain
1:45 AM 53.6 °F - 50.0 °F 88% 29.70 in 10.0 mi West 15.0 mph 20.7 mph 0.00 in   Overcast
1:54 AM 54.0 °F - 48.9 °F 83% 29.72 in 10.0 mi West 13.8 mph 24.2 mph 0.00 in   Mostly Cloudy
2:54 AM 50.0 °F - 46.0 °F 86% 29.78 in 10.0 mi West 10.4 mph - N/A   Clear
4:54 AM 46.9 °F - 39.9 °F 77% 29.81 in 10.0 mi WSW 11.5 mph 17.3 mph N/A   Clear
5:54 AM 45.0 °F 40.1 °F 37.0 °F 74% 29.82 in 10.0 mi WSW 9.2 mph 17.3 mph N/A   Clear
7:54 AM 45.0 °F 39.3 °F 36.0 °F 71% 29.86 in 10.0 mi WSW 11.5 mph 18.4 mph N/A   Clear
8:54 AM 45.0 °F 38.5 °F 36.0 °F 71% 29.87 in 10.0 mi WSW 13.8 mph 23.0 mph N/A   Clear
9:54 AM 46.0 °F 40.2 °F 35.1 °F 66% 29.87 in 10.0 mi West 12.7 mph 25.3 mph N/A   Clear
10:54 AM 46.0 °F 39.9 °F 35.1 °F 66% 29.88 in 10.0 mi West 13.8 mph 23.0 mph N/A   Clear
11:22 AM 44.6 °F 37.2 °F 35.6 °F 71% 29.87 in 10.0 mi WSW 17.3 mph 26.5 mph N/A   Mostly Cloudy
11:29 AM 44.6 °F 36.6 °F 33.8 °F 66% 29.86 in 10.0 mi West 19.6 mph 26.5 mph N/A   Scattered Clouds
11:54 AM 45.0 °F 39.3 °F 34.0 °F 65% 29.87 in 10.0 mi West 11.5 mph 25.3 mph N/A   Partly Cloudy
12:25 PM 46.4 °F 39.8 °F 33.8 °F 62% 29.85 in 10.0 mi West 16.1 mph 25.3 mph N/A   Mostly Cloudy
12:40 PM 46.4 °F 39.0 °F 33.8 °F 62% 29.85 in 10.0 mi West 19.6 mph 28.8 mph N/A   Scattered Clouds
12:54 PM 46.9 °F - 34.0 °F 61% 29.86 in 10.0 mi West 12.7 mph 26.5 mph N/A   Scattered Clouds
1:49 PM 44.6 °F 37.4 °F 32.0 °F 61% 29.85 in 10.0 mi West 16.1 mph 27.6 mph N/A   Mostly Cloudy
1:54 PM 44.1 °F 36.2 °F 32.0 °F 63% 29.86 in 10.0 mi West 18.4 mph 26.5 mph N/A   Mostly Cloudy
2:46 PM 42.8 °F 36.2 °F 30.2 °F 61% 29.87 in 10.0 mi West 12.7 mph 28.8 mph N/A   Overcast
2:54 PM 43.0 °F 35.1 °F 30.0 °F 60% 29.89 in 10.0 mi West 17.3 mph 26.5 mph N/A   Overcast
3:54 PM 42.1 °F 35.7 °F 30.0 °F 62% 29.91 in 10.0 mi West 11.5 mph 23.0 mph N/A   Overcast
4:31 PM 39.2 °F 30.8 °F 28.4 °F 65% 29.93 in 10.0 mi NW 15.0 mph - N/A   Overcast
4:54 PM 37.0 °F 27.7 °F 28.9 °F 73% 29.98 in 10.0 mi NW 16.1 mph - N/A   Overcast
5:54 PM 35.1 °F 26.9 °F 26.1 °F 70% 30.01 in 10.0 mi NW 11.5 mph 23.0 mph N/A   Overcast
6:54 PM 32.0 °F 20.5 °F 21.0 °F 64% 30.06 in 10.0 mi NW 18.4 mph 26.5 mph N/A   Overcast
7:06 PM 32.0 °F 20.1 °F 21.2 °F 64% 30.04 in 10.0 mi NW 19.6 mph 23.0 mph N/A   Overcast
7:54 PM 30.9 °F 19.1 °F 18.0 °F 59% 30.09 in 10.0 mi NW 18.4 mph 24.2 mph N/A   Overcast
8:54 PM 30.0 °F 16.6 °F 16.0 °F 56% 30.11 in 10.0 mi NW 23.0 mph 31.1 mph N/A   Overcast
9:54 PM 28.9 °F 17.3 °F 16.0 °F 58% 30.13 in 10.0 mi NW 16.1 mph 26.5 mph N/A   Mostly Cloudy
11:54 PM 28.9 °F 17.7 °F 18.0 °F 64% 30.16 in 10.0 mi NW 15.0 mph 23.0 mph N/A   Mostly Cloudy